Peoria, IL

8:17 PM CST on November 16, 2019 (GMT -0600)
Greater Peoria Regional

Weather History for KPIA - September, 2019

Change the Weather History Date:

Monday, September 9, 2019

  Actual Average Record
Temperature  
Mean Temperature 75 °F 69 °F  
Max Temperature 86 °F 80 °F 100 °F (1933)
Min Temperature 64 °F 58 °F 41 °F (1883)
Degree Days  
Heating Degree Days 0 1  
Month to date heating degree days 0 8  
Since 1 July heating degree days 0 14  
Cooling Degree Days 10 5  
Month to date cooling degree days 43 55  
Year to date cooling degree days 1025 962  
Growing Degree Days 25 (Base 50)    
Moisture  
Dew Point 66 °F    
Average Humidity 79    
Maximum Humidity 93    
Minimum Humidity 65    
Precipitation  
Precipitation 0.01 in 0.11 in 2.10 in (1903)
Month to date precipitation 1.37 1.00  
Year to date precipitation 34.89 25.95  
Snow  
Snow 0.00 in 0.00 in 0.00 in ()
Month to date snowfall 0.0 0.0  
Since 1 July snowfall 0.0 0.0  
Since 1 September snowfall 0.0 0.0  
Snow Depth 0.00 in    
Sea Level Pressure  
Sea Level Pressure 30.08 in    
Wind  
Wind Speed 7 mph ()    
Max Wind Speed 16 mph    
Max Gust Speed 23 mph    
Visibility 10.0 miles    
Events Rain    
T = Trace of Precipitation, MM = Missing Value Source: Averaged Metar Reports

Daily Weather History Graph

Daily Weather History Graph

Search for Another Location

Airport or City:

Astronomy

Sep. 09, 2019 Rise Set
Actual Time 6:33 AM CDT 7:18 PM CDT
Civil Twilight 6:05 AM CDT 7:45 PM CDT
Nautical Twilight 5:32 AM CDT 8:18 PM CDT
Astronomical Twilight 4:58 AM CDT 8:52 PM CDT
Moon 5:14 PM CDT (9/9) 2:03 AM CDT (9/9)
Length of Visible Light 13h 40m
Length of Day
12h 44m
Waxing Gibbous, 83% of the Moon is Illuminated
Sep 9
Waxing Gibbous
Sep 13
Full
Sep 21
Last Quarter
Sep 28
New
Oct 5
First Quarter

Hourly Weather History & Observations

Time (CDT) Temp. Heat Index Dew Point Humidity Pressure Visibility Wind Dir Wind Speed Gust Speed Precip Events Conditions
12:04 AM 66.9 °F - 62.1 °F 84% 30.10 in 10.0 mi East 5.8 mph - N/A   Mostly Cloudy
12:19 AM 66.9 °F - 62.1 °F 84% 30.10 in 10.0 mi East 8.1 mph - N/A   Overcast
12:54 AM 66.0 °F - 62.1 °F 87% 30.10 in 10.0 mi East 6.9 mph - N/A   Overcast
1:54 AM 66.0 °F - 62.1 °F 87% 30.09 in 10.0 mi East 8.1 mph - N/A   Mostly Cloudy
2:06 AM 64.9 °F - 62.1 °F 90% 30.10 in 10.0 mi East 6.9 mph - N/A   Scattered Clouds
2:54 AM 64.9 °F - 62.1 °F 90% 30.11 in 10.0 mi ENE 6.9 mph - N/A   Clear
3:54 AM 64.9 °F - 61.0 °F 87% 30.10 in 10.0 mi East 6.9 mph - N/A   Clear
4:28 AM 64.9 °F - 61.0 °F 87% 30.11 in 10.0 mi East 4.6 mph - N/A   Mostly Cloudy
4:40 AM 64.9 °F - 61.0 °F 87% 30.11 in 10.0 mi East 6.9 mph - N/A   Overcast
4:54 AM 64.9 °F - 61.0 °F 87% 30.11 in 10.0 mi East 5.8 mph - N/A   Overcast
5:54 AM 64.9 °F - 62.1 °F 90% 30.11 in 10.0 mi East 4.6 mph - 0.01 in Rain Light Rain
6:54 AM 64.9 °F - 62.1 °F 90% 30.12 in 10.0 mi ESE 3.5 mph - 0.00 in   Mostly Cloudy
7:54 AM 66.0 °F - 62.1 °F 87% 30.13 in 10.0 mi East 6.9 mph - N/A   Mostly Cloudy
8:54 AM 69.1 °F - 62.1 °F 78% 30.12 in 10.0 mi SE 9.2 mph - N/A   Mostly Cloudy
9:54 AM 73.0 °F - 64.0 °F 73% 30.11 in 10.0 mi SE 8.1 mph - N/A   Clear
10:54 AM 75.0 °F - 64.9 °F 71% 30.11 in 10.0 mi SSE 8.1 mph - N/A   Clear
11:54 AM 78.1 °F - 66.9 °F 68% 30.10 in 10.0 mi SSE 9.2 mph 19.6 mph N/A   Clear
12:54 PM 80.1 °F 82.7 °F 68.0 °F 67% 30.09 in 10.0 mi SE 10.4 mph - N/A   Clear
1:54 PM 82.0 °F 85.9 °F 70.0 °F 67% 30.07 in 10.0 mi SSE 8.1 mph - N/A   Clear
2:54 PM 84.0 °F 89.0 °F 71.1 °F 65% 30.06 in 10.0 mi South 9.2 mph - N/A   Clear
3:54 PM 84.9 °F 90.7 °F 72.0 °F 65% 30.03 in 10.0 mi SSE 9.2 mph 19.6 mph N/A   Clear
4:07 PM 84.9 °F 90.7 °F 72.0 °F 65% 30.04 in 10.0 mi SE 10.4 mph - N/A   Partly Cloudy
4:54 PM 84.9 °F 90.7 °F 72.0 °F 65% 30.02 in 10.0 mi SSE 10.4 mph - N/A   Clear
5:54 PM 84.0 °F 90.2 °F 73.0 °F 69% 30.01 in 10.0 mi SSE 10.4 mph - N/A   Clear
6:54 PM 82.9 °F 88.8 °F 73.0 °F 72% 30.01 in 10.0 mi SSE 10.4 mph - N/A   Clear
7:54 PM 80.1 °F 84.2 °F 73.0 °F 79% 30.03 in 10.0 mi SSE 8.1 mph - N/A   Clear
8:54 PM 79.0 °F - 72.0 °F 79% 30.03 in 10.0 mi SSE 8.1 mph - N/A   Clear
9:54 PM 78.1 °F - 72.0 °F 81% 30.03 in 10.0 mi SSE 9.2 mph - N/A   Clear
10:54 PM 77.0 °F - 71.1 °F 82% 30.04 in 10.0 mi South 12.7 mph - N/A   Clear
11:54 PM 75.9 °F - 70.0 °F 82% 30.04 in 10.0 mi South 11.5 mph - N/A   Clear